Home > Weather > Naha > Past weeks

Flag for Japan Weather for the Past 2 Weeks in Naha, Okinawa, Japan

Now
57 °F

Sunny.


Feels Like: 53 °F
Forecast: 55 / 65 °F
Wind: 22 mph from North

Location: Naha Airport

Current Time: Feb 8, 2016 at 9:26:09 AM

Latest Report: Feb 8, 2016 at 8:30 AM


Visibility: 10 mi

Pressure: 30.24 "Hg

Humidity: 39%

Dew point: 32 °F

Location of NahaLocation

Historic Weather in Naha — Graph

°F

Naha Temperature Yesterday

Maximum temperature yesterday: 61 °F (at 11:00 AM)
Minimum temperature yesterday: 54 °F (at 1:00 AM)
Average temperature yesterday: 57 °F

High & Low Weather Summary for the Past Weeks

 TemperatureHumidityPressure
High77 °F (Jan 29, 2:30 PM)94% (Jan 29, 11:48 PM)30.45 "Hg (Jan 29, 11:48 PM)
Low43 °F (Jan 25, 12:00 AM)36% (Feb 7, 11:00 AM)29.95 "Hg (Feb 5, 3:30 PM)
Average61 °F69%30.18 "Hg
* Reported Jan 24 7:00 AM — Feb 8 7:30 AM, Naha, Weather by CustomWeather, © 2016

Note: Actual official high and low records may vary slightly from our data, if they occured in-between our weather recording intervals... More about our weather records

Advertising

Naha Weather History for the Previous 24 Hours

 ConditionsComfort  
Time TempWeatherWind HumidityBarometerVisibility
7:30 AM
Mon, Feb 8
55 °FScattered clouds.25 mph44%30.21 "HgN/A
7:00 AM55 °FPassing clouds.24 mph44%30.21 "HgN/A
6:30 AM55 °FPassing clouds.24 mph41%30.21 "HgN/A
6:00 AM55 °FPassing clouds.24 mph44%30.21 "HgN/A
5:30 AM54 °FPassing clouds.25 mph44%30.18 "HgN/A
5:00 AM54 °FPassing clouds.25 mph47%30.18 "HgN/A
4:30 AM55 °FPassing clouds.22 mph41%30.18 "HgN/A
4:00 AM55 °FPassing clouds.25 mph47%30.18 "HgN/A
3:30 AM54 °FPassing clouds.24 mph51%30.18 "HgN/A
3:00 AM55 °FPassing clouds.23 mph44%30.18 "HgN/A
2:30 AM55 °FPassing clouds.23 mph44%30.18 "HgN/A
2:00 AM55 °FPassing clouds.24 mph44%30.18 "HgN/A
1:30 AM55 °FPassing clouds.21 mph47%30.18 "HgN/A
1:00 AM55 °FPassing clouds.17 mph51%30.18 "HgN/A
12:30 AM55 °FPassing clouds.16 mph47%30.18 "HgN/A
12:00 AM55 °FPassing clouds.18 mph51%30.18 "HgN/A
11:30 PM
Sun, Feb 7
55 °FPassing clouds.14 mph55%30.18 "HgN/A
11:00 PM55 °FPassing clouds.16 mph47%30.18 "HgN/A
10:30 PM55 °FPassing clouds.16 mph51%30.18 "HgN/A
10:00 PM55 °FPassing clouds.16 mph47%30.18 "HgN/A
9:30 PM55 °FPassing clouds.17 mph51%30.18 "HgN/A
9:00 PM55 °FPassing clouds.17 mph55%30.15 "HgN/A
8:30 PM57 °FPassing clouds.17 mph51%30.15 "HgN/A
8:00 PM57 °FPassing clouds.18 mph48%30.15 "HgN/A
7:30 PM57 °FPassing clouds.18 mph55%30.15 "HgN/A
7:00 PM57 °FPassing clouds.16 mph48%30.15 "HgN/A
6:30 PM57 °FPassing clouds.14 mph48%30.12 "HgN/A
6:00 PM57 °FScattered clouds.15 mph48%30.12 "HgN/A
5:30 PM59 °FScattered clouds.14 mph45%30.12 "HgN/A
5:00 PM59 °FPassing clouds.14 mph48%30.12 "HgN/A
4:30 PM59 °FPartly sunny.17 mph51%30.12 "HgN/A
4:00 PM61 °FPartly sunny.16 mph48%30.09 "HgN/A
3:30 PM59 °FPartly sunny.17 mph51%30.09 "HgN/A
3:00 PM59 °FPartly sunny.18 mph48%30.09 "HgN/A
2:30 PM61 °FPartly sunny.18 mph45%30.09 "HgN/A
2:00 PM61 °FPartly sunny.17 mph45%30.12 "HgN/A
1:30 PM61 °FScattered clouds.14 mph45%30.12 "HgN/A
12:30 PM61 °FPassing clouds.15 mph45%30.15 "HgN/A
12:00 PM59 °FPartly sunny.13 mph45%30.15 "HgN/A
11:30 AM61 °FPassing clouds.15 mph42%30.15 "HgN/A
11:00 AM61 °FPassing clouds.12 mph36%30.18 "HgN/A
10:30 AM59 °FPassing clouds.13 mph45%30.18 "HgN/A
10:00 AM59 °FPassing clouds.17 mph48%30.18 "HgN/A
9:30 AM57 °FScattered clouds.17 mph51%30.18 "HgN/A
9:00 AM57 °FPartly sunny.16 mph55%30.18 "HgN/A
Weather by CustomWeather, © 2016

See weather overviewHow to use our weather pages